Terminal Aerodrome Forecast
Issued by NWS Billings, MT

Home | Current Version | Previous Version | Text Only | Print | Product List | Glossary On
Versions: 1 2 3 4 5 6 7 8 9 10 11 12 13 14 15 16 17 18 19 20 21 22 23 24 25 26 27 28 29 30 31 32 33 34 35 36 37 38 39 40 41 42 43 44 45 46 47 48 49 50
353
FTUS45 KBYZ 211708 AAB
TAFMLS
TAF AMD
KMLS 211708Z 2117/2212 VRB05KT 1/4SM FZFG VV002
      TEMPO 2117/2119 6SM BR FEW002 SCT200
     FM211900 VRB05KT P6SM SCT250=

USA.gov is the U.S. government's official web portal to all federal, state and local government web resources and services.